Location: Grossmotten
(48.5500°N, 15.3833°E)
Time: 17:09:49
(UTC+00:00)

SJ 16-02 - Pass Details

Date: 15 November 2019
Orbit: 606 x 616 km, 75.0° (Epoch: 11 December)

Event Time Altitude Azimuth Distance (km) Brightness Sun altitude
Rises 03:03:07 0° 164° (SSE) 2,858 4.9 -30.1°
Reaches altitude 10° 03:05:44 10° 149° (SSE) 1,957 4.2 -29.7°
Maximum altitude 03:09:05 22° 98° (E) 1,344 3.7 -29.1°
Drops below altitude 10° 03:12:27 10° 48° (NE) 1,967 4.5 -28.6°
Sets 03:15:05 0° 33° (NNE) 2,876 5.3 -28.1°
